Location: Chilton Park
(37.7711°N, 100.0276°W)
Time: 14:51:00
(UTC+00:00)

Cosmos 1898 Rocket - Visible Passes

Search period start: 03 July 2022 00:00
Search period end: 13 July 2022 00:00
Orbit: 754 x 782 km, 74.0° (Epoch: 02 July)

Date Brightness Start Highest point End Pass type
(mag) Time Alt. Az. Time Alt. Az. Time Alt. Az.
03 Jul 4.8 07:45:39 10° N 07:50:23 35° ENE 07:52:15 27° ESE visible
03 Jul 4.6 09:28:06 10° NW 09:32:13 24° W 09:32:28 24° WSW visible
04 Jul 5.5 07:09:16 10° NNE 07:13:10 21° ENE 07:15:13 17° E visible
04 Jul 3.9 08:50:31 10° NNW 08:55:24 43° WSW 08:55:25 43° WSW visible
05 Jul 6.0 06:33:36 10° NNE 06:35:48 13° NE 06:38:00 10° E visible
05 Jul 3.3 08:13:18 10° NNW 08:18:27 78° WSW 08:18:27 78° WSW visible
06 Jul 3.8 07:36:20 10° N 07:41:28 60° ENE 07:41:35 60° ENE visible
06 Jul 5.5 09:20:22 10° WNW 09:21:48 13° W 09:21:48 13° W visible
07 Jul 4.6 06:59:38 10° N 07:04:21 34° ENE 07:04:45 34° ENE visible
07 Jul 4.9 08:42:02 10° NW 08:44:58 23° WNW 08:44:58 23° WNW visible
08 Jul 5.4 06:23:15 10° NNE 06:27:07 21° ENE 06:27:58 20° ENE visible
08 Jul 4.3 08:04:27 10° NNW 08:08:12 38° WNW 08:08:12 38° WNW visible
09 Jul 5.9 05:47:39 10° NNE 05:49:45 12° NE 05:51:14 11° ENE visible
09 Jul 3.8 07:27:15 10° NNW 07:31:28 59° NW 07:31:28 59° NW visible
10 Jul 4.0 06:50:18 10° N 06:54:46 54° NE 06:54:46 54° NE visible
10 Jul 5.7 08:34:13 10° WNW 08:35:01 12° WNW 08:35:01 12° WNW visible
11 Jul 4.7 06:13:36 10° N 06:18:07 33° ENE 06:18:07 33° ENE visible
11 Jul 5.2 07:55:57 10° NW 07:58:21 21° WNW 07:58:21 21° WNW visible
12 Jul 5.3 05:37:15 10° NNE 05:41:03 20° ENE 05:41:29 20° ENE visible
12 Jul 4.6 07:18:24 10° NNW 07:21:44 35° WNW 07:21:44 35° WNW visible
